Location: Bourg-d�Oueil
(42.8588°N, 0.4991°E)
Time: 17:13:21
(UTC+00:00)

USA 215 - Pass Details

Date: 16 June 2021
Orbit: 1100 x 1107 km, 123.0° (Epoch: 01 August)

Event Time Altitude Azimuth Distance (km) Brightness Sun altitude
Rises 23:20:48 0° 47° (NE) 3,922 6.6 -23.2°
Reaches altitude 10° 23:23:19 10° 44° (NE) 2,962 6.0 -23.3°
Maximum altitude 23:29:39 55° 329° (NNW) 1,305 3.9 -23.4°
Drops below altitude 10° 23:35:58 10° 253° (WSW) 2,955 5.4 -23.6°
Sets 23:38:30 0° 249° (WSW) 3,911 6.0 -23.6°
